TimeEST,TemperatureF,Dew PointF,Humidity,Sea Level PressureIn,VisibilityMPH,Wind Direction,Wind SpeedMPH,Gust SpeedMPH,PrecipitationIn,Events,Conditions,WindDirDegrees,DateUTC
12:53 AM,30.0,10.0,43,29.96,10.0,WNW,11.5,23.0,N/A,,Clear,300,2013-01-21 05:53:00
1:53 AM,30.0,8.1,40,29.99,10.0,NW,13.8,21.9,N/A,,Clear,310,2013-01-21 06:53:00
2:53 AM,28.9,8.1,41,30.01,10.0,WNW,9.2,18.4,N/A,,Clear,300,2013-01-21 07:53:00
3:53 AM,27.0,10.0,49,30.02,10.0,NW,9.2,-,N/A,,Clear,310,2013-01-21 08:53:00
4:53 AM,27.0,9.0,47,30.04,10.0,NW,10.4,-,N/A,,Clear,310,2013-01-21 09:53:00
5:53 AM,26.1,10.0,51,30.05,10.0,WNW,8.1,-,N/A,,Clear,300,2013-01-21 10:53:00
7:53 AM,24.1,10.0,55,30.10,10.0,NW,3.5,-,N/A,,Clear,320,2013-01-21 12:53:00
8:53 AM,28.0,9.0,45,30.10,10.0,North,5.8,-,N/A,,Clear,360,2013-01-21 13:53:00
9:53 AM,28.9,7.0,40,30.10,10.0,Variable,6.9,-,N/A,,Clear,0,2013-01-21 14:53:00
10:53 AM,30.0,8.1,40,30.09,10.0,WNW,5.8,-,N/A,,Scattered Clouds,300,2013-01-21 15:53:00
11:53 AM,30.9,8.1,38,30.05,10.0,Variable,4.6,-,N/A,,Scattered Clouds,0,2013-01-21 16:53:00
12:53 PM,30.0,10.9,45,30.02,10.0,SW,6.9,-,N/A,,Overcast,220,2013-01-21 17:53:00
1:53 PM,28.9,12.0,49,30.00,10.0,SSW,6.9,-,N/A,,Mostly Cloudy,200,2013-01-21 18:53:00
2:53 PM,28.9,14.0,54,29.99,10.0,Variable,4.6,-,N/A,,Overcast,0,2013-01-21 19:53:00
3:53 PM,28.9,19.0,67,29.97,10.0,SSE,10.4,-,N/A,,Overcast,150,2013-01-21 20:53:00
4:51 PM,28.4,24.8,86,29.94,2.5,SSE,5.8,-,0.00,Snow,Light Snow,160,2013-01-21 21:51:00
4:53 PM,28.0,24.1,85,29.94,2.5,SSE,5.8,-,0.00,Snow,Light Snow,150,2013-01-21 21:53:00
5:19 PM,28.4,26.6,93,29.92,2.0,East,3.5,-,0.00,Snow,Light Snow,100,2013-01-21 22:19:00
5:28 PM,28.4,26.6,93,29.92,1.8,ENE,3.5,-,0.00,Snow,Light Snow,70,2013-01-21 22:28:00
5:45 PM,28.4,26.6,93,29.92,1.5,East,3.5,-,0.00,Snow,Light Snow,80,2013-01-21 22:45:00
5:53 PM,28.0,26.1,92,29.92,1.2,ENE,3.5,-,0.00,Snow,Light Snow,70,2013-01-21 22:53:00
6:07 PM,28.4,26.6,93,29.91,1.0,Calm,Calm,-,0.01,Snow,Light Snow,0,2013-01-21 23:07:00
6:16 PM,28.4,26.6,93,29.91,0.8,NE,3.5,-,0.02,Snow,Light Snow,40,2013-01-21 23:16:00
6:44 PM,28.4,26.6,93,29.90,1.0,North,4.6,-,0.04,Snow,Light Snow,360,2013-01-21 23:44:00
6:53 PM,28.0,27.0,96,29.91,0.8,NNE,3.5,-,0.05,Snow,Light Snow,20,2013-01-21 23:53:00
7:01 PM,28.4,26.6,93,29.90,1.0,NNE,4.6,-,0.00,Snow,Light Snow,30,2013-01-22 00:01:00
7:17 PM,28.4,28.4,100,29.90,0.8,North,3.5,-,0.01,Snow,Light Snow,10,2013-01-22 00:17:00
7:43 PM,28.4,28.4,100,29.88,0.5,NNE,3.5,-,0.03,Fog-Snow,Snow,30,2013-01-22 00:43:00
7:53 PM,28.9,28.0,96,29.89,0.8,Calm,Calm,-,0.05,Snow,Light Snow,0,2013-01-22 00:53:00
8:13 PM,28.4,28.4,100,29.87,1.2,NE,3.5,-,0.01,Snow,Light Snow,40,2013-01-22 01:13:00
8:20 PM,28.4,28.4,100,29.87,1.2,NE,5.8,-,0.02,Snow,Light Snow,40,2013-01-22 01:20:00
8:34 PM,30.2,28.4,93,29.87,1.5,North,5.8,-,0.02,Snow,Light Snow,360,2013-01-22 01:34:00
8:53 PM,30.0,28.9,96,29.87,1.2,NNE,4.6,-,0.02,Snow,Light Snow,20,2013-01-22 01:53:00
9:53 PM,30.9,30.0,96,29.81,1.2,NNE,10.4,-,0.03,Snow,Light Snow,30,2013-01-22 02:53:00
10:01 PM,30.2,30.2,100,29.81,1.2,NNE,9.2,-,0.00,Snow,Light Snow,30,2013-01-22 03:01:00
10:10 PM,30.2,28.4,93,29.81,0.8,NNE,9.2,-,0.00,Snow,Light Snow,20,2013-01-22 03:10:00
10:27 PM,30.2,28.4,93,29.80,1.0,North,8.1,-,0.01,Snow,Light Snow,350,2013-01-22 03:27:00
10:53 PM,28.9,28.0,96,29.78,1.0,North,9.2,-,0.01,Snow,Light Snow,360,2013-01-22 03:53:00
11:32 PM,28.4,28.4,100,29.77,1.0,NNE,5.8,-,0.01,Snow,Light Snow,20,2013-01-22 04:32:00
11:50 PM,28.4,28.4,100,29.76,2.0,NNE,5.8,-,0.01,Snow,Light Snow,20,2013-01-22 04:50:00
11:53 PM,28.9,28.0,96,29.76,2.5,North,5.8,-,0.02,Snow,Light Snow,10,2013-01-22 04:53:00